sat.trackr.live / text

‹ back to catalog

FLOCK 4BE-7

NORAD 60481 · 2024-149P

PAYLOAD ACTIVE UNKNOWN

§ Identity

Operator
Country
US
Launch date
2024-08-16
Launch site
AFWTR
Launch vehicle
Mass (kg)
RCS (m²)

Purposes: earth_obs

External: N2YO · Heavens-Above · Gunter

§ Orbital elements

Epoch: 2026-09-19T11:53:09.023712Z

Period
93.25 min
Inclination
97.3699°
Eccentricity
0.0001585
Mean motion
15.44315928 rev/d
Perigee alt
432.3 km
Apogee alt
434.5 km
Semi-major
6,811.5 km
B*
6.0139e-4
RAAN
346.5982°
Arg perigee
266.9870°
Mean anomaly
93.1197°
Rev number
11,678

§ Raw data

FLOCK 4BE-71 60481U 24149P   26262.49524333  .00027677  00000+0  60139-3 0  99902 60481  97.3699 346.5982 0001585 266.9870  93.1197 15.44315928116783

JSON: /api/v1/satellites/60481 · /tle

For live sub-satellite position, see the globe view (requires WebGL).

§ Visibility from observer

Set your observer location to see the next 7 days of passes ≥ 10°. The values pass through the URL so the page stays shareable.

No JS? Fill the form by hand. The geolocation button needs JavaScript.